ARIANE 42P DEB, 44511

Orbit data source: Space-Track

ARIANE 42P DEB, 44511 is space debris in LEO originally from a launch on Mon, 10 Aug 1992 UTC launched from the French Guiana (FRGUI). Debris objects in space refer to the collection of defunct objects orbiting the Earth. Examples of debris include non-operational satellites, rocket bodies, and fragments generated from explosions, collisions, or faulty payload assembly.

Loading next visibility...
Identifier
44511, 1992-052J
Orbit
LEO
Country
Flag of FRFR
Related business
Manufacturer
ArianeGroup
Mission
Spacecraft
Bus & Motor
Unknown
Mass
Unknown
Launch date (UTC)
1992-08-10 (33 years ago)
Launch vehicle
Unknown
Launch site
French Guiana (FRGUI)
Object type
Payload
Rocket body
Debris
Shape & HBR
Unknown shape, 0.1 m
Radar Cross Section
Small (<0.1 m²)

Expand to show TLE details & history
Last TLE update: 10 hours ago

TLE from 10 hours ago
0 ARIANE 42P DEB
1 44511U 92052J   25354.11128140  .00001821  00000-0  76577-2 0  9996
2 44511  66.0650 293.1644 0060303  15.2017 345.0795 12.85005814297215
Epoch: 2025-12-20T02:40Z
TLE epoch observation values (Epoch: 2025-12-20T02:40:14.712Z)
Latitude
-0.00004°
Longitude
164.16031°
Altitude
1,278.474 km
Speed
7.238 km/s
True Right ascension
19h 32m 39s
True Declination
0° 00' 00"
Sunlit
Object was in daylight at epoch
Visualization orbit readout
Latitude
Unknown
Longitude
Unknown
Altitude
Unknown
Speed
Unknown
Apparent Right ascension
Unknown
Apparent Declination
Unknown
Sunlit
N/A
Visualization observer readout
Local Sidereal Time
11:25:27
Azimuth
Unknown
Elevation
Unknown
Doppler factor
Unknown
Orbital elements
Apogee altitude
1,366.388 km
Perigee altitude
1,273.544 km
Semi-major axis
7,698.103 km
Eccentricity
0.00603
Inclination
66.065°
RAAN
293.1644°
Arg. of periapsis
15.2017°
True anomaly
344.90027°
Mean anomaly
345.0795°
Eccentric anomaly
344.99002°
Mean motion
3.21342 °/min
Orbital period
112.03 mins
BSTAR
0.0076577
Loading maneuver chart data...
Computing Atmospheric mass density...
Loading historical data...
Loading historical data...
Loading historical data...
Loading historical data...
Loading historical data...
Loading historical data...
Loading historical data...

Documentation

Showing up to 5 results
|